Theta_e
314 314 313 316 315 313 316 315 315 320 343 342 338 337 337 339 339 339 337 328 327 328 332 334 334 333 331 325 321 321 320 319 318 318 319 321 322 318 317 318 317 316 316 317 317 321 323 325 329
314 314 313 318 314 314 312 314 316 321 341 339 340 340 340 341 339 336 330 328 327 328 331 332 332 331 327 323 322 322 322 321 318 317 319 318 318 318 318 318 317 317 318 318 319 321 323 324 326
314 312 315 312 311 313 314 323 342 340 341 341 341 341 341 340 338 334 333 328 329 327 328 328 329 328 325 323 324 325 323 322 320 318 318 319 319 319 319 319 318 318 319 319 319 319 320 320 321
314 315 315 313 314 314 317 334 341 341 341 341 341 341 340 339 337 335 329 329 329 329 327 326 327 326 325 325 327 325 323 322 321 319 317 317 319 319 318 318 318 318 317 317 316 316 316 316 316
315 314 312 312 313 314 315 318 325 339 341 341 341 342 342 339 339 335 329 329 329 329 328 326 326 326 326 327 326 324 320 319 319 319 318 317 317 317 317 317 317 316 316 316 316 316 316 315 316
314 312 310 314 315 315 315 317 318 326 341 341 341 341 342 341 336 330 329 329 328 328 327 327 327 326 326 326 325 324 323 321 318 318 318 318 317 317 317 317 317 317 318 319 320 319 318 317 318
311 308 312 312 314 314 315 317 326 338 340 340 340 341 339 337 332 330 330 329 329 329 328 327 327 327 326 326 326 325 323 322 321 320 321 321 321 321 321 321 322 323 324 325 325 325 324 322 322
313 309 313 311 315 313 316 319 328 336 340 340 340 342 340 336 333 330 330 330 330 330 329 328 327 327 326 327 326 324 323 323 324 324 325 326 324 325 325 326 327 330 330 331 331 331 331 332 334
313 309 311 313 313 316 316 323 338 340 340 340 339 340 339 338 336 332 331 331 330 330 330 329 328 327 327 326 325 325 326 327 328 329 329 327 331 328 329 329 331 332 333 334 334 334 334 334 333
308 309 312 314 315 315 317 323 337 340 339 339 339 341 341 339 339 334 335 336 333 331 330 330 329 328 326 325 325 325 327 329 329 329 331 332 334 330 333 333 332 333 334 333 332 333 332 333 332
308 310 314 315 315 316 316 319 334 339 340 340 340 342 342 340 338 335 335 335 335 334 331 331 330 328 326 325 325 325 327 330 330 332 334 332 328 329 334 334 333 333 332 331 330 330 332 332 328
309 310 313 315 315 316 320 331 337 339 341 337 341 340 340 340 339 338 337 336 334 331 331 332 330 327 325 325 324 327 328 329 330 331 330 332 331 332 334 334 333 332 331 330 329 329 328 327 326
307 309 312 314 314 318 325 332 336 339 338 338 338 336 330 337 338 339 338 337 336 332 333 330 329 330 330 326 330 331 329 330 330 329 331 332 333 333 333 333 333 333 331 329 329 328 327 325 324
307 308 310 313 312 320 330 336 335 335 333 334 331 328 332 337 336 338 338 338 336 335 334 330 331 332 331 331 331 332 333 332 330 330 331 331 332 332 332 331 331 330 330 330 330 328 326 324 315
309 308 308 310 310 322 330 332 332 334 335 334 329 332 338 337 337 338 338 337 335 335 334 332 332 333 332 333 333 332 331 331 330 331 331 331 331 331 329 324 322 321 322 322 326 326 324 320 315
307 307 308 309 308 320 324 329 329 334 332 332 333 334 337 336 337 338 337 336 335 335 335 333 334 334 333 333 332 331 330 330 330 328 319 316 315 313 313 313 314 314 315 318 322 324 321 320 309
305 307 307 309 308 315 323 329 331 333 333 333 334 335 335 335 337 338 337 336 335 335 335 334 334 333 332 330 329 329 329 330 321 311 310 311 312 311 310 310 310 310 312 319 322 322 322 313 308
305 307 309 310 309 321 325 327 331 330 330 333 333 334 334 334 336 337 336 336 334 334 335 334 333 331 328 327 328 330 329 320 311 309 309 309 309 309 309 309 309 310 318 322 323 321 316 310 310
306 309 310 309 311 323 325 329 330 329 332 331 331 333 332 337 335 335 335 335 335 334 334 333 331 328 328 328 331 330 320 311 309 309 308 308 308 306 306 305 305 311 317 321 320 317 315 312 309
308 309 310 311 312 327 327 330 328 329 332 331 330 332 331 332 334 336 336 335 334 332 330 329 329 328 327 330 330 321 313 310 308 307 307 306 305 303 302 302 303 307 310 319 320 318 316 314 311
306 308 310 313 317 328 327 332 331 330 332 332 330 331 332 332 333 334 334 332 331 330 329 328 327 328 330 329 323 315 311 309 308 309 307 305 303 302 301 302 304 305 305 306 318 319 318 317 313
307 308 310 311 314 322 326 332 330 331 331 331 330 330 330 331 331 332 332 331 330 329 329 327 328 330 329 324 317 314 311 311 312 315 310 303 301 301 301 301 302 303 304 303 302 305 315 318 316
309 310 310 311 313 314 327 325 330 330 332 331 329 328 329 330 331 330 331 330 330 329 328 329 329 328 326 322 318 313 312 313 319 319 307 301 301 300 301 300 301 302 302 302 303 302 308 316 317
309 310 311 312 313 316 314 319 325 333 332 330 329 329 328 329 329 329 331 330 329 328 327 328 328 327 323 321 319 314 313 317 319 315 304 300 300 300 300 300 300 300 300 300 301 301 301 304 308
309 309 311 312 314 315 312 317 317 330 329 329 329 329 328 328 328 329 330 330 329 329 328 325 325 324 322 321 318 316 317 319 315 307 303 300 299 299 299 299 299 299 300 300 300 300 300 300 300
308 310 313 314 314 313 315 315 318 327 328 328 329 329 329 328 328 328 329 329 328 328 328 327 324 324 323 322 317 317 318 311 307 305 302 299 299 299 298 298 298 299 299 299 299 299 299 299 299
308 309 311 314 315 314 315 318 319 323 327 327 328 329 328 328 328 328 328 329 328 328 328 327 327 326 325 321 318 318 313 310 308 305 299 298 298 298 298 298 298 298 298 298 298 298 299 298 298
309 310 312 314 318 316 314 316 320 327 328 327 328 329 328 328 328 327 327 328 328 328 327 327 327 324 322 318 319 317 315 312 309 305 299 298 297 298 298 298 298 298 298 298 298 298 298 298 298
308 310 313 315 314 316 316 314 312 322 326 327 327 329 328 328 328 328 328 328 328 328 327 327 325 321 320 321 320 319 316 312 309 304 299 297 297 297 297 297 297 297 297 298 298 298 297 297 297
308 309 310 312 310 312 312 314 315 315 319 326 328 329 328 328 328 328 328 328 328 328 325 324 324 324 323 322 321 319 315 312 309 304 299 297 297 297 297 297 297 297 297 297 297 297 297 297 296
Wind_Speed
12 11 12 8 2 4 4 7 4 2 2 2 24 7 6 4 3 3 20 26 32 30 28 25 23 22 20 20 19 18 17 16 16 16 16 16 16 17 17 16 16 16 16 16 17 16 14 11 12
9 8 6 2 3 1 6 6 10 3 8 24 18 16 6 2 5 21 29 29 29 30 28 25 23 22 21 20 19 18 17 16 16 15 16 16 17 17 17 16 16 15 15 15 15 14 11 8 8
5 5 3 3 3 6 5 5 1 17 22 13 7 12 5 6 10 37 25 35 31 29 27 24 22 22 21 19 18 17 16 15 15 15 15 15 15 15 15 15 15 14 14 13 13 12 9 6 6
3 2 1 2 7 5 4 0 6 0 11 4 20 9 8 4 33 23 35 35 32 29 26 23 22 20 19 18 16 16 15 15 15 15 15 15 15 14 14 13 13 13 12 12 11 10 8 6 4
6 1 1 5 5 4 7 5 7 5 3 12 10 5 8 23 15 29 38 35 33 30 26 23 20 19 18 16 16 15 16 16 15 15 15 15 15 14 14 13 12 11 11 10 9 7 6 5 4
5 3 1 10 16 4 6 18 10 7 10 10 12 12 6 21 23 38 35 34 32 30 26 23 20 18 17 16 16 16 15 16 16 16 16 15 15 14 14 12 11 11 10 9 8 6 4 4 4
7 4 6 7 15 4 6 10 7 8 13 6 23 5 17 31 35 35 35 33 31 28 26 23 20 18 18 17 17 16 16 16 17 16 16 16 15 14 13 12 11 10 9 7 6 5 5 5 5
6 4 4 6 11 6 3 2 12 20 6 25 24 9 14 41 37 36 34 31 29 27 24 23 21 19 18 18 18 17 17 17 16 16 15 14 13 13 12 11 10 9 8 6 5 5 5 5 4
9 3 5 8 7 7 1 7 6 8 24 5 12 17 34 43 40 39 37 33 29 26 24 22 21 20 19 19 18 17 16 15 14 13 12 14 13 12 10 10 9 9 8 7 5 6 6 6 5
6 5 11 8 8 2 4 8 0 5 16 6 12 25 41 43 42 42 37 35 31 27 25 22 21 20 19 18 18 17 16 13 11 10 10 10 12 8 8 9 9 8 6 4 3 2 3 4 5
8 9 17 17 7 3 5 1 4 15 2 8 25 30 35 45 42 41 35 30 28 26 25 23 21 20 19 19 18 16 14 11 9 9 9 9 9 9 10 9 9 6 5 3 2 2 4 3 2
4 16 16 23 13 2 4 5 3 4 9 18 26 25 24 34 36 35 33 28 26 28 25 24 23 23 20 18 16 14 12 9 8 7 8 7 7 9 10 9 6 6 6 5 6 3 4 2 3
5 4 23 27 13 4 6 4 5 14 32 31 39 33 25 32 31 31 29 28 25 28 28 27 26 23 20 16 15 13 11 5 3 5 7 7 7 8 9 9 8 8 8 7 7 7 6 3 2
9 21 19 14 9 10 9 7 5 12 29 33 24 17 37 41 37 30 30 29 29 30 28 27 25 21 17 13 14 12 9 7 6 7 8 8 9 10 10 10 9 9 9 9 8 8 6 2 4
18 5 12 21 7 6 18 2 4 26 26 36 26 27 36 35 34 37 32 32 29 28 27 26 25 22 19 17 14 14 12 11 9 9 10 10 11 11 11 11 10 10 9 8 10 9 6 5 8
8 5 11 7 10 12 15 6 6 29 26 20 20 27 30 28 32 34 33 30 29 27 27 25 22 21 19 17 15 14 12 10 9 9 8 8 8 8 7 8 9 9 9 11 13 12 10 8 12
4 5 8 5 9 6 9 3 11 29 21 20 25 25 27 28 33 35 35 33 31 28 27 26 23 21 19 17 16 13 11 10 9 7 6 6 5 5 4 5 6 8 9 14 14 13 7 12 17
5 5 5 13 6 6 6 5 18 25 22 24 24 30 32 35 39 39 35 34 31 29 28 26 25 22 19 18 17 14 12 10 8 7 6 5 4 4 3 5 5 9 12 15 14 11 13 16 16
7 5 7 5 6 7 13 10 19 23 19 18 25 27 29 31 35 37 33 34 32 32 30 28 26 23 22 22 18 14 11 10 8 6 5 4 4 4 5 5 7 11 13 13 12 16 17 18 16
5 5 5 5 7 5 10 13 18 20 28 37 34 30 31 29 35 36 36 35 34 32 30 29 26 25 23 19 16 14 12 10 7 6 5 5 4 4 6 8 10 13 14 15 15 14 19 20 19
13 12 4 2 7 7 10 7 13 14 15 19 19 23 27 36 41 41 39 38 36 34 31 28 26 26 22 19 17 16 14 11 10 6 5 5 6 6 5 8 9 10 11 11 16 17 19 21 21
16 10 7 7 2 6 5 8 16 22 15 16 27 28 32 31 34 40 41 40 38 33 30 29 28 25 23 20 18 16 14 13 11 6 6 6 5 7 8 9 9 8 8 9 10 14 20 20 21
6 9 10 8 3 4 6 5 7 17 15 14 23 28 34 38 37 44 43 39 35 31 31 30 28 26 24 20 18 17 14 13 11 10 8 8 8 8 8 8 9 8 9 8 9 10 13 19 19
9 4 6 2 4 3 7 5 5 19 21 19 21 30 35 40 41 41 40 38 34 32 32 31 30 27 25 23 21 19 17 16 15 12 11 10 10 10 9 9 9 9 8 8 9 10 10 11 12
6 8 2 2 1 8 9 4 6 19 19 25 23 38 40 41 44 45 45 41 38 36 36 33 31 30 28 25 24 21 17 15 12 10 9 10 10 11 10 10 10 9 9 9 9 10 10 10 9
10 11 5 7 8 10 6 7 5 18 26 30 40 47 46 41 45 48 47 44 43 40 39 38 35 32 30 28 26 21 16 14 13 10 10 11 11 11 12 11 11 10 9 9 10 9 10 10 9
5 9 7 5 1 4 4 1 4 7 21 22 24 27 33 37 42 46 46 46 44 42 42 42 39 34 32 31 27 23 19 17 15 13 12 13 13 13 13 12 11 11 10 9 9 9 8 8 8
8 7 5 2 5 5 3 4 6 6 14 16 13 26 35 38 38 38 43 46 43 40 40 40 38 35 33 32 28 24 19 18 16 15 14 14 15 15 14 14 13 12 11 10 9 8 8 6 7
4 4 4 5 4 5 3 6 6 12 14 17 17 32 36 37 42 44 45 42 40 39 38 40 37 34 34 32 28 24 22 21 19 17 16 16 17 17 16 14 13 12 12 11 9 8 8 6 5
4 8 6 5 4 1 4 4 2 4 8 16 26 33 38 46 49 47 45 43 43 42 40 41 38 35 34 30 27 23 23 23 21 20 19 19 18 18 17 15 14 13 12 11 10 8 8 6 5
Wind_Direction
281 292 300 308 24 66 267 264 236 170 325 166 152 175 145 72 140 196 145 152 157 147 147 153 154 150 146 142 135 128 121 117 115 118 118 118 117 115 113 110 109 108 107 107 108 106 107 110 104
274 294 289 265 114 21 278 253 248 231 154 126 111 123 68 94 109 138 147 155 155 146 148 153 153 150 146 141 134 128 121 117 115 117 120 119 119 118 116 113 110 108 107 108 112 112 114 110 106
284 271 252 150 175 181 234 282 26 126 122 129 109 97 95 135 146 147 155 156 151 147 149 152 151 149 145 139 133 127 122 119 118 118 119 120 120 118 116 112 111 109 110 112 112 114 116 109 102
247 199 177 154 223 240 206 180 101 329 98 105 122 80 95 231 151 159 155 155 151 149 149 148 149 147 144 139 135 130 125 123 122 119 118 119 119 117 115 115 113 112 111 109 110 115 118 110 103
211 213 235 256 226 228 238 221 228 205 69 143 117 130 97 148 162 162 158 155 152 149 147 147 148 146 144 142 138 133 128 125 123 122 121 119 118 118 116 115 114 113 112 110 110 110 111 116 89
173 136 116 245 240 152 244 257 244 228 127 145 126 115 126 174 171 158 161 156 154 150 147 147 148 148 145 143 139 134 130 129 128 128 126 123 120 117 115 114 114 113 110 109 109 111 105 90 67
169 135 214 257 263 169 221 230 216 190 146 180 141 96 137 159 166 162 161 159 155 152 151 152 151 150 147 145 141 139 138 137 136 133 129 127 125 122 121 120 115 112 110 110 111 111 91 82 66
202 122 226 235 244 268 213 258 280 191 160 149 147 156 166 165 165 163 162 160 158 156 157 158 156 154 152 146 145 147 146 144 142 141 139 136 134 131 128 125 121 117 116 111 114 101 81 69 84
194 133 213 225 166 206 54 22 45 146 137 155 182 170 167 164 163 163 163 161 161 162 163 160 157 156 152 152 153 153 151 152 151 148 140 142 133 129 133 133 134 130 124 119 99 87 82 74 84
168 174 219 225 213 90 74 27 12 101 139 84 117 149 161 165 165 165 165 163 163 164 164 162 159 157 158 159 162 160 156 158 155 151 152 146 142 134 134 146 143 147 144 132 100 66 117 92 73
195 210 222 245 212 301 305 320 271 142 137 80 133 142 154 165 169 168 167 169 165 167 165 160 158 158 163 167 168 166 164 167 163 156 157 165 167 160 164 163 152 152 149 141 83 58 112 116 40
180 232 225 251 255 205 93 129 26 13 139 140 148 140 149 158 170 172 167 170 166 169 165 164 165 167 168 171 171 173 173 181 195 201 198 189 185 183 186 182 177 183 183 179 167 189 145 102 304
215 244 233 248 256 207 132 109 129 121 135 157 162 162 186 187 191 181 177 173 174 171 168 165 168 169 167 171 168 169 167 166 183 205 218 220 223 224 225 227 232 227 215 213 200 200 187 185 285
204 231 246 241 209 195 123 136 93 157 148 146 149 155 185 185 181 181 175 177 176 175 170 167 171 173 176 177 175 179 191 210 218 229 229 234 233 238 236 238 231 228 231 232 231 202 183 197 57
231 224 234 242 174 164 123 117 204 165 164 146 153 174 195 185 190 179 181 184 182 181 176 176 179 181 177 177 185 198 208 221 228 234 242 239 240 242 246 245 239 232 230 208 191 172 164 112 91
177 164 233 209 152 187 160 210 171 172 168 174 186 179 183 190 189 184 182 188 186 184 184 182 179 176 178 189 205 214 212 228 241 238 228 227 234 240 242 245 244 221 193 185 172 153 130 107 118
263 203 212 257 183 140 177 151 166 185 182 180 180 170 175 187 192 185 183 188 188 190 188 185 186 189 191 201 207 212 220 236 234 221 207 210 217 238 234 218 198 188 170 165 165 152 160 134 118
187 185 198 215 204 123 145 198 164 180 185 184 174 170 176 184 190 186 186 188 187 189 190 190 189 196 198 204 207 210 221 222 219 204 192 185 186 191 186 193 174 165 168 164 166 166 145 134 128
174 175 216 211 187 128 182 161 178 184 182 172 174 178 177 180 187 187 186 186 186 188 191 197 197 197 200 205 208 210 206 217 216 195 191 174 165 168 189 170 164 164 173 170 171 158 153 149 148
220 216 237 249 162 104 155 177 176 178 188 185 180 180 181 178 183 178 179 184 190 196 196 192 192 200 205 207 206 209 206 202 201 188 184 177 168 167 167 169 165 169 168 175 180 186 171 169 166
215 226 210 201 116 47 120 145 177 197 192 190 194 191 182 177 179 180 182 188 194 198 196 194 197 204 204 205 206 207 205 203 194 196 208 209 197 181 164 170 166 164 164 172 191 196 199 187 179
210 185 207 248 225 165 210 169 198 186 188 187 193 191 189 187 186 186 187 192 197 197 198 197 199 203 204 206 209 220 217 213 200 234 247 230 216 200 171 170 169 167 165 170 173 186 205 203 197
210 151 195 227 198 146 221 128 195 196 201 182 193 196 195 193 191 193 194 197 197 198 196 197 200 203 208 209 215 219 218 216 241 258 226 207 195 196 181 166 162 166 162 165 169 167 177 200 213
190 128 185 112 130 226 208 142 217 190 194 195 197 198 197 197 197 198 199 200 200 199 198 201 202 206 211 212 216 217 215 237 251 228 212 204 197 188 173 165 164 166 157 159 158 154 160 172 188
192 141 172 171 115 229 165 156 219 191 193 191 187 199 195 194 196 201 200 201 204 206 205 206 208 210 212 216 217 217 224 239 230 223 218 208 195 184 169 161 163 163 160 153 144 142 144 144 155
204 188 166 164 188 216 125 204 230 185 200 204 193 198 194 190 194 204 206 207 211 212 213 211 211 214 217 219 216 220 215 214 215 218 212 197 193 185 176 169 165 163 159 154 144 150 147 139 139
199 195 193 114 2 97 212 218 342 180 194 202 199 189 193 196 197 207 209 215 217 214 216 213 214 218 219 217 217 213 201 207 216 215 201 194 188 186 179 175 172 169 163 154 150 149 142 136 126
174 173 167 24 150 184 271 186 197 166 195 191 176 186 194 198 199 202 213 218 220 218 217 214 215 218 213 214 215 211 208 209 214 216 207 196 194 189 187 181 177 172 166 163 156 152 142 136 129
150 185 135 124 142 157 124 254 209 180 191 184 186 191 192 195 201 207 215 218 217 213 214 213 211 208 208 211 213 212 210 212 211 211 206 201 196 192 189 185 180 176 171 168 163 159 148 146 132
167 170 133 146 237 95 143 278 172 213 198 186 185 193 195 202 204 206 210 209 210 210 211 208 207 207 208 209 209 208 213 212 209 207 202 200 196 193 191 187 183 182 179 174 167 167 156 150 135